Location: Unspecified
(48.8430°N, 12.6288°E)
Time: 15:13:53
(UTC+01:00)

ISS - Visible Passes

Search period start: 29 November 2022 00:00
Search period end: 09 December 2022 00:00
Orbit: 411 x 420 km, 51.6° (Epoch: 29 November)

Date Brightness Start Highest point End Pass type
(mag) Time Alt. Az. Time Alt. Az. Time Alt. Az.
29 Nov -3.5 17:51:34 10° WNW 17:54:50 53° N 17:55:46 38° ENE visible
29 Nov -0.4 19:28:21 10° WNW 19:28:40 12° WNW 19:28:40 12° WNW visible
30 Nov -3.4 17:02:48 10° WNW 17:06:03 50° N 17:09:05 11° ENE visible
30 Nov -2.7 18:39:38 10° WNW 18:41:58 43° WNW 18:41:58 43° WNW visible
01 Dec -3.9 17:50:52 10° WNW 17:54:12 72° NNE 17:55:20 38° E visible
01 Dec -0.4 19:27:47 10° W 19:28:13 13° W 19:28:13 13° W visible
02 Dec -3.6 17:02:04 10° WNW 17:05:23 59° N 17:08:40 10° E visible
02 Dec -2.6 18:38:53 10° WNW 18:41:39 42° SW 18:41:39 42° SW visible
03 Dec -3.5 17:50:01 10° WNW 17:53:20 67° SSW 17:55:11 24° SE visible
03 Dec -0.4 19:27:42 10° WSW 19:28:06 11° WSW 19:28:06 11° WSW visible
04 Dec -3.8 17:01:11 10° WNW 17:04:32 88° NNE 17:07:51 10° ESE visible
04 Dec -1.6 18:38:18 10° W 18:40:56 22° SW 18:41:48 20° SSW visible
05 Dec -2.1 17:49:11 10° W 17:52:13 33° SW 17:55:14 10° SSE visible
06 Dec -2.8 17:00:11 10° WNW 17:03:25 49° SSW 17:06:39 10° SE visible
07 Dec -0.7 17:48:44 10° W 17:50:49 16° SW 17:52:53 10° S visible
08 Dec -1.2 16:59:19 10° W 17:02:04 24° SW 17:04:47 10° SSE visible
